KB9PMA-1 Weather Reports


Display with metric or nautical units.
time (UTC)temp
F
wind
direction
speed
MPH
gust
MPH
rain 1hr
in
rain 24hr
in
rain mn
in
humidity
%
barometer
mb
20260504025801 52 171 0.0 4.0 0.00 0.13 0.13 81 1011.6
20260504025301 52 95 1.0 5.0 0.00 0.13 0.13 82 1011.6
20260504024801 52 95 2.0 3.0 0.00 0.13 0.13 82 1011.7
20260504024301 52 202 2.0 2.0 0.00 0.13 0.13 82 1011.7
20260504023801 52 201 1.0 5.0 0.00 0.13 0.13 82 1011.8
20260504023301 52 181 1.0 2.0 0.00 0.13 0.13 82 1011.8
20260504022801 52 189 0.0 2.0 0.00 0.13 0.13 81 1011.7
20260504022301 52 168 1.0 2.0 0.00 0.13 0.13 83 1011.7
20260504021801 52 171 1.0 3.0 0.00 0.13 0.13 84 1011.7
20260504021301 51 160 0.0 0.0 0.00 0.13 0.13 85 1011.8
20260504020801 51 160 0.0 0.0 0.00 0.13 0.13 85 1011.9
20260504020301 51 160 0.0 0.0 0.00 0.13 0.13 86 1011.9
20260504015801 51 160 0.0 0.0 0.00 0.13 0.13 86 1011.9
20260504015301 51 160 0.0 0.0 0.00 0.13 0.13 85 1011.9
20260504014801 51 160 0.0 0.0 0.00 0.13 0.13 86 1011.9
20260504014301 51 160 0.0 0.0 0.00 0.13 0.13 86 1012.0
20260504013801 51 160 0.0 0.0 0.00 0.13 0.13 86 1012.0
20260504013301 51 160 0.0 0.0 0.00 0.13 0.13 86 1011.9
20260504012801 51 160 0.0 0.0 0.00 0.13 0.13 85 1011.9
20260504012301 51 160 0.0 0.0 0.00 0.13 0.13 85 1011.9
20260504011801 51 160 0.0 0.0 0.00 0.13 0.13 85 1012.0
20260504011301 51 160 0.0 0.0 0.00 0.13 0.13 84 1012.0
20260504010801 51 160 0.0 0.0 0.00 0.13 0.13 83 1012.0
20260504010301 51 160 0.0 0.0 0.00 0.13 0.13 83 1012.0
20260504005801 51 160 0.0 0.0 0.00 0.13 0.13 83 1012.0
20260504005301 51 160 0.0 0.0 0.00 0.13 0.13 83 1012.1
20260504004801 52 160 0.0 0.0 0.00 0.13 0.13 82 1012.2
20260504004301 52 160 0.0 0.0 0.00 0.13 0.13 82 1012.1
20260504003801 52 160 0.0 1.0 0.00 0.13 0.13 83 1012.2
20260504003301 52 170 0.0 2.0 0.00 0.13 0.13 84 1012.2
20260504002801 52 180 0.0 0.0 0.00 0.13 0.13 82 1012.3
20260504002301 52 180 0.0 1.0 0.00 0.13 0.13 81 1012.2
20260504001801 52 43 0.0 2.0 0.00 0.13 0.13 80 1012.3
20260504001301 52 12 0.0 3.0 0.00 0.13 0.13 80 1012.3
20260504000801 52 50 0.0 3.0 0.00 0.13 0.13 80 1012.3
20260504000301 52 75 2.0 6.0 0.00 0.13 0.13 80 1012.3
20260503235801 53 97 1.0 2.0 0.00 0.13 0.13 82 1012.3
20260503235301 53 16 1.0 4.0 0.00 0.13 0.13 81 1012.4
20260503234801 53 167 0.0 0.0 0.00 0.13 0.13 81 1012.5
20260503234301 53 167 0.0 0.0 0.00 0.13 0.13 79 1012.5
20260503233801 53 167 0.0 0.0 0.00 0.13 0.13 79 1012.5
20260503233301 53 167 0.0 0.0 0.00 0.13 0.13 79 1012.5
20260503232801 53 167 0.0 0.0 0.00 0.13 0.13 78 1012.5
20260503232301 53 167 0.0 0.0 0.00 0.13 0.13 76 1012.5
20260503231801 53 167 0.0 0.0 0.00 0.13 0.13 78 1012.6
20260503231301 54 167 0.0 0.0 0.00 0.13 0.13 78 1012.5
20260503230801 53 167 0.0 3.0 0.00 0.13 0.13 77 1012.5
20260503230301 53 182 1.0 3.0 0.00 0.13 0.13 77 1012.6
20260503225801 53 196 1.0 3.0 0.00 0.13 0.13 76 1012.6
20260503225302 53 180 2.0 3.0 0.00 0.13 0.13 78 1012.7
20260503224801 53 178 1.0 4.0 0.00 0.13 0.13 79 1012.7
20260503224301 53 168 2.0 5.0 0.00 0.13 0.13 74 1012.7
20260503223801 53 139 1.0 5.0 0.00 0.13 0.13 78 1012.8
20260503223301 53 168 0.0 4.0 0.00 0.13 0.13 77 1012.8
20260503222801 53 174 2.0 5.0 0.00 0.13 0.13 78 1012.9
20260503222301 53 137 1.0 4.0 0.00 0.13 0.13 80 1012.8
20260503221801 52 171 1.0 5.0 0.00 0.13 0.13 82 1012.9
20260503221301 52 171 1.0 5.0 0.00 0.13 0.13 82 1012.9
20260503220801 52 198 2.0 3.0 0.00 0.13 0.13 84 1012.9
20260503220301 51 172 2.0 3.0 0.00 0.13 0.13 84 1012.9
20260503215801 51 178 3.0 4.0 0.00 0.13 0.13 84 1013.1
20260503215301 51 175 2.0 3.0 0.00 0.13 0.13 85 1013.1
20260503214801 51 180 3.0 4.0 0.00 0.13 0.13 87 1013.2
20260503214301 51 191 2.0 5.0 0.00 0.13 0.13 86 1013.2
20260503213801 51 106 0.0 1.0 0.00 0.13 0.13 88 1013.3
20260503213301 51 153 0.0 3.0 0.00 0.13 0.13 87 1013.4
20260503212801 51 137 1.0 4.0 0.00 0.13 0.13 89 1013.5
20260503212301 51 182 2.0 3.0 0.00 0.13 0.13 88 1013.7
20260503211801 50 167 1.0 2.0 0.00 0.13 0.13 89 1013.9
20260503211301 50 119 1.0 3.0 0.01 0.13 0.13 90 1014.0
20260503210801 50 205 1.0 2.0 0.02 0.13 0.13 91 1014.1
20260503210301 50 123 0.0 3.0 0.04 0.13 0.13 91 1014.2
20260503205801 50 201 2.0 3.0 0.06 0.13 0.13 92 1014.3
20260503205303 49 111 1.0 6.0 0.08 0.13 0.13 92 1014.5
20260503204801 49 106 3.0 4.0 0.09 0.13 0.13 93 1014.7
20260503204301 48 149 1.0 2.0 0.10 0.13 0.13 93 1014.8
20260503203801 48 174 1.0 2.0 0.11 0.13 0.13 93 1015.0
20260503203301 48 161 0.0 2.0 0.12 0.13 0.13 92 1015.2
20260503202801 48 153 0.0 0.0 0.13 0.13 0.13 92 1015.3
20260503202304 48 122 0.0 3.0 0.13 0.13 0.13 92 1015.4
20260503201801 48 136 0.0 0.0 0.13 0.13 0.13 91 1015.6
20260503201301 48 136 0.0 0.0 0.12 0.12 0.12 90 1015.8
20260503200801 48 136 0.0 3.0 0.11 0.11 0.11 90 1016.1
20260503200301 49 223 2.0 4.0 0.09 0.09 0.09 89 1016.4
20260503195801 49 327 0.0 0.0 0.07 0.07 0.07 87 1016.6
20260503195304 49 327 0.0 7.0 0.05 0.05 0.05 86 1016.8
20260503194801 49 306 1.0 6.0 0.04 0.04 0.04 85 1017.1
20260503194301 50 250 2.0 9.0 0.03 0.03 0.03 84 1017.1
20260503193801 51 203 6.0 15.0 0.02 0.02 0.02 83 1017.2
20260503193301 52 251 3.0 20.0 0.01 0.01 0.01 77 1017.0
20260503192801 53 219 6.0 24.0 0.00 0.00 0.00 73 1016.8
20260503192301 54 279 5.0 18.0 0.00 0.00 0.00 67 1016.7
20260503191801 54 219 6.0 16.0 0.00 0.00 0.00 64 1016.7
20260503191301 56 220 1.0 18.0 0.00 0.00 0.00 61 1016.5
20260503190802 56 274 5.0 28.0 0.00 0.00 0.00 57 1016.4
20260503190302 58 236 6.0 20.0 0.00 0.00 0.00 53 1016.4
20260503185802 59 232 4.0 10.0 0.00 0.00 0.00 49 1016.0
20260503185302 59 216 4.0 14.0 0.00 0.00 0.00 47 1016.0
20260503184802 59 219 4.0 15.0 0.00 0.00 0.00 47 1015.9
20260503184302 59 357 1.0 15.0 0.00 0.00 0.00 49 1015.9
20260503183802 59 358 4.0 11.0 0.00 0.00 0.00 48 1015.9
20260503183302 59 244 3.0 18.0 0.00 0.00 0.00 47 1016.0
20260503182802 60 265 1.0 15.0 0.00 0.00 0.00 49 1015.9
20260503182304 60 181 6.0 10.0 0.00 0.00 0.00 46 1015.9
20260503181802 60 306 3.0 10.0 0.00 0.00 0.00 47 1016.0
20260503181302 60 241 5.0 13.0 0.00 0.00 0.00 49 1016.1
20260503180802 60 7 5.0 18.0 0.00 0.00 0.00 47 1016.1
20260503180302 60 333 5.0 12.0 0.00 0.00 0.00 45 1016.4
20260503175802 60 277 11.0 11.0 0.00 0.00 0.00 47 1016.5
20260503175302 60 248 4.0 15.0 0.00 0.00 0.00 44 1016.5
20260503174802 60 358 8.0 14.0 0.00 0.00 0.00 44 1016.6
20260503174302 61 302 6.0 15.0 0.00 0.00 0.00 43 1016.6
20260503173802 61 226 6.0 13.0 0.00 0.00 0.00 43 1016.7
20260503173302 61 227 9.0 16.0 0.00 0.00 0.00 41 1016.7
20260503172802 62 28 8.0 22.0 0.00 0.00 0.00 45 1016.8
20260503172302 61 212 3.0 12.0 0.00 0.00 0.00 44 1016.9
20260503171802 61 305 2.0 11.0 0.00 0.00 0.00 42 1017.0
20260503171302 61 45 4.0 9.0 0.00 0.00 0.00 43 1017.0
20260503170802 61 241 4.0 12.0 0.00 0.00 0.00 42 1017.0
20260503170302 61 267 6.0 14.0 0.00 0.00 0.00 42 1017.1
20260503150802 57 239 6.0 17.0 0.00 0.00 0.00 50 1018.5
20260503150302 57 225 6.0 15.0 0.00 0.00 0.00 48 1018.3
20260503140302 54 330 3.0 17.0 0.00 0.00 0.00 57 1018.5
20260503131302 49 237 4.0 12.0 0.00 0.00 0.00 65 1018.6
20260503130802 48 247 6.0 9.0 0.00 0.00 0.00 65 1018.6
20260503130302 48 73 0.0 9.0 0.00 0.00 0.00 67 1018.6
20260503110802 37 236 0.0 0.0 0.00 0.00 0.00 90 1018.2
20260503110302 37 236 0.0 0.0 0.00 0.00 0.00 90 1018.2
20260503090303 36 216 0.0 0.0 0.00 0.00 0.00 90 1018.0
20260503081303 36 216 0.0 0.0 0.00 0.00 0.00 89 1018.1
20260503080803 36 216 0.0 0.0 0.00 0.00 0.00 88 1018.2
20260503080303 36 216 0.0 0.0 0.00 0.00 0.00 88 1018.2
20260503072803 36 216 0.0 0.0 0.00 0.00 0.00 88 1018.2
20260503072305 37 216 0.0 0.0 0.00 0.00 0.00 88 1018.2
20260503071803 37 216 0.0 0.0 0.00 0.00 0.00 87 1018.3
20260503071303 37 216 0.0 0.0 0.00 0.00 0.00 87 1018.3
20260503070803 36 216 0.0 0.0 0.00 0.00 0.00 86 1018.3
20260503070303 36 216 0.0 0.0 0.00 0.00 0.00 86 1018.4
20260503060303 36 216 0.0 0.0 0.00 0.00 0.00 92 1018.8
20260503054803 36 216 0.0 0.0 0.00 0.00 0.00 92 1018.9
20260503054303 36 216 0.0 0.0 0.00 0.00 0.00 93 1018.9
20260503053803 36 216 0.0 0.0 0.00 0.00 0.00 93 1019.0
20260503053303 37 216 0.0 0.0 0.00 0.00 0.00 93 1019.0
20260503052803 37 216 0.0 0.0 0.00 0.00 0.00 93 1019.0
20260503052305 36 216 0.0 0.0 0.00 0.00 0.00 92 1019.1
20260503051803 36 216 0.0 0.0 0.00 0.00 0.00 92 1019.1
20260503051303 37 216 0.0 0.0 0.00 0.00 0.00 93 1019.1
20260503050803 37 216 0.0 0.0 0.00 0.00 0.00 93 1019.2
20260503050303 37 216 0.0 0.0 0.00 0.00 0.00 92 1019.2
20260503045803 37 216 0.0 0.0 0.00 0.00 0.00 93 1019.3
20260503045305 37 216 0.0 0.0 0.00 0.00 0.00 92 1019.2
20260503044803 37 216 0.0 0.0 0.00 0.00 0.00 92 1019.2
20260503044303 37 216 0.0 0.0 0.00 0.00 0.00 92 1019.2
20260503043803 37 216 0.0 0.0 0.00 0.00 0.00 92 1019.3
20260503043303 37 216 0.0 0.0 0.00 0.00 0.00 91 1019.3
20260503042803 37 216 0.0 0.0 0.00 0.00 0.00 91 1019.3
20260503042305 37 216 0.0 0.0 0.00 0.00 0.00 91 1019.2
20260503041803 38 216 0.0 0.0 0.00 0.00 0.00 91 1019.2
20260503041303 38 216 0.0 0.0 0.00 0.00 0.00 91 1019.2
20260503040803 38 216 0.0 0.0 0.00 0.00 0.00 90 1019.3
20260503040303 38 216 0.0 0.0 0.00 0.00 0.00 90 1019.2
20260503035803 38 216 0.0 0.0 0.00 0.00 0.00 89 1019.3
20260503035305 38 216 0.0 0.0 0.00 0.00 0.00 89 1019.3
20260503034803 38 216 0.0 0.0 0.00 0.00 0.00 88 1019.3
20260503034303 38 216 0.0 0.0 0.00 0.00 0.00 87 1019.3
20260503033803 38 216 0.0 0.0 0.00 0.00 0.00 86 1019.3
20260503033303 38 216 0.0 0.0 0.00 0.00 0.00 85 1019.3
20260503032803 38 216 0.0 0.0 0.00 0.00 0.00 85 1019.3
20260503032304 38 216 0.0 0.0 0.00 0.00 0.00 85 1019.3
20260503031804 39 216 0.0 0.0 0.00 0.00 0.00 85 1019.4
20260503031303 39 216 0.0 0.0 0.00 0.00 0.00 85 1019.4
20260503030803 39 216 0.0 0.0 0.00 0.00 0.00 82 1019.4
20260503030303 39 216 0.0 0.0 0.00 0.00 0.00 81 1019.4